AXM27 VRMM-VTBS

Flight info

Callsign AXM27
Flight time N/A
Altitude 39000
Route ATSON1B ATSON G465 KAT P762 NIMOV/N0466F410 P762 DWI L877 MIGAR L524 IBETO WILLA1C
Aircraft A339/H-SADE1E2E3GHIJ3J5M1P2RWXY/LB2D1

Departure

Time N/A
Airport Velana International Airport (VRMM)

Arrival

Time 2026-05-05 05:56
Airport Suvarnabhumi Airport (VTBS)
Time Latitude Longitude Altitude Speed Heading
2026-05-05 04:36 12.40086 94.42757 38926 ft 490 kts 60°
2026-05-05 04:37 12.41652 94.45851 38923 ft 490 kts 64°
2026-05-05 04:37 12.44576 94.52144 38921 ft 490 kts 65°
2026-05-05 04:38 12.47412 94.58493 38918 ft 490 kts 65°
2026-05-05 04:38 12.50232 94.64846 38922 ft 491 kts 65°
2026-05-05 04:39 12.53071 94.71229 38921 ft 492 kts 65°
2026-05-05 04:39 12.55905 94.77583 38919 ft 490 kts 65°
2026-05-05 04:40 12.58744 94.83926 38919 ft 490 kts 65°
2026-05-05 04:40 12.61594 94.90282 38920 ft 491 kts 65°
2026-05-05 04:41 12.64447 94.96636 38921 ft 491 kts 65°
2026-05-05 04:41 12.67297 95.02981 38918 ft 490 kts 65°
2026-05-05 04:42 12.70129 95.09285 38917 ft 491 kts 65°
2026-05-05 04:42 12.72984 95.15646 38918 ft 491 kts 65°
2026-05-05 04:43 12.75832 95.21993 38918 ft 490 kts 65°
2026-05-05 04:43 12.78681 95.28342 38922 ft 490 kts 65°
2026-05-05 04:44 12.81528 95.34694 38921 ft 491 kts 64°
2026-05-05 04:44 12.84375 95.41050 38918 ft 491 kts 64°
2026-05-05 04:45 12.87230 95.47395 38921 ft 490 kts 64°
2026-05-05 04:45 12.90101 95.53705 38922 ft 490 kts 64°
2026-05-05 04:46 12.92995 95.60044 38920 ft 491 kts 64°
2026-05-05 04:46 12.95888 95.66380 38922 ft 490 kts 64°
2026-05-05 04:47 12.98778 95.72713 38920 ft 489 kts 64°
2026-05-05 04:47 13.01661 95.79039 38919 ft 490 kts 64°
2026-05-05 04:48 13.04527 95.85332 38918 ft 490 kts 64°
2026-05-05 04:48 13.07413 95.91676 38921 ft 489 kts 64°
2026-05-05 04:49 13.10290 95.98004 38921 ft 489 kts 64°
2026-05-05 04:49 13.13043 96.04391 38916 ft 490 kts 67°
2026-05-05 04:50 13.15512 96.10896 38919 ft 490 kts 68°
2026-05-05 04:50 13.17963 96.17375 38920 ft 489 kts 68°
2026-05-05 04:51 13.20297 96.23923 38922 ft 489 kts 69°
2026-05-05 04:51 13.22646 96.30468 38916 ft 489 kts 68°
2026-05-05 04:52 13.25090 96.37010 38919 ft 489 kts 68°
2026-05-05 04:52 13.27605 96.43501 38912 ft 488 kts 67°
2026-05-05 04:53 13.30175 96.49950 38919 ft 488 kts 66°
2026-05-05 04:53 13.32790 96.56383 38919 ft 488 kts 66°
2026-05-05 04:54 13.35437 96.62803 38919 ft 489 kts 66°
2026-05-05 04:54 13.38092 96.69179 38920 ft 488 kts 65°
2026-05-05 04:55 13.40777 96.75581 38907 ft 487 kts 65°
2026-05-05 04:55 13.43467 96.81968 38905 ft 488 kts 65°
2026-05-05 04:56 13.46169 96.88360 38919 ft 488 kts 65°
2026-05-05 04:56 13.48879 96.94758 38921 ft 488 kts 65°
2026-05-05 04:57 13.51587 97.01146 38918 ft 487 kts 65°
2026-05-05 04:57 13.54297 97.07535 38920 ft 487 kts 65°
2026-05-05 04:58 13.56550 97.12844 38829 ft 490 kts 65°
2026-05-05 04:58 13.57915 97.16060 38699 ft 491 kts 65°
2026-05-05 04:58 13.59281 97.19280 38446 ft 493 kts 65°
2026-05-05 04:58 13.60654 97.22514 38122 ft 493 kts 65°
2026-05-05 04:59 13.62023 97.25743 37806 ft 493 kts 65°
2026-05-05 04:59 13.63392 97.28970 37502 ft 491 kts 65°
2026-05-05 04:59 13.64755 97.32187 37181 ft 490 kts 65°
2026-05-05 04:59 13.66111 97.35388 36885 ft 490 kts 65°
2026-05-05 05:00 13.67476 97.38610 36584 ft 491 kts 65°
2026-05-05 05:00 13.68840 97.41829 36285 ft 492 kts 65°
2026-05-05 05:00 13.70206 97.45058 35994 ft 494 kts 65°
2026-05-05 05:00 13.71578 97.48299 35712 ft 495 kts 65°
2026-05-05 05:01 13.72955 97.51553 35431 ft 496 kts 65°
2026-05-05 05:01 13.74333 97.54810 35148 ft 497 kts 65°
2026-05-05 05:01 13.75708 97.58062 34873 ft 497 kts 65°
2026-05-05 05:01 13.77087 97.61324 34596 ft 497 kts 65°
2026-05-05 05:02 13.78464 97.64583 34329 ft 497 kts 65°
2026-05-05 05:02 13.79843 97.67847 34055 ft 498 kts 65°
2026-05-05 05:02 13.81223 97.71116 33775 ft 499 kts 65°
2026-05-05 05:02 13.82607 97.74395 33470 ft 500 kts 65°
2026-05-05 05:03 13.83992 97.77677 33154 ft 501 kts 65°
2026-05-05 05:03 13.85373 97.80953 32853 ft 494 kts 65°
2026-05-05 05:03 13.86725 97.84163 32558 ft 485 kts 65°
2026-05-05 05:03 13.88057 97.87328 32264 ft 478 kts 65°
2026-05-05 05:04 13.89372 97.90453 31973 ft 474 kts 65°
2026-05-05 05:04 13.90681 97.93564 31690 ft 473 kts 65°
2026-05-05 05:04 13.91975 97.96642 31420 ft 475 kts 65°
2026-05-05 05:04 13.93295 97.99781 31121 ft 480 kts 65°
2026-05-05 05:05 13.94629 98.02952 30852 ft 484 kts 65°
2026-05-05 05:05 13.95971 98.06146 30573 ft 486 kts 65°
2026-05-05 05:05 13.97314 98.09340 30217 ft 488 kts 65°
2026-05-05 05:05 13.98665 98.12557 29775 ft 489 kts 65°
2026-05-05 05:06 14.00011 98.15766 29316 ft 489 kts 65°
2026-05-05 05:06 14.01366 98.18994 28838 ft 487 kts 66°
2026-05-05 05:06 14.02707 98.22195 28388 ft 486 kts 66°
2026-05-05 05:06 14.04042 98.25382 27949 ft 483 kts 66°
2026-05-05 05:07 14.05363 98.28538 27510 ft 478 kts 66°
2026-05-05 05:07 14.06678 98.31679 27073 ft 475 kts 66°
2026-05-05 05:07 14.07966 98.34756 26652 ft 472 kts 66°
2026-05-05 05:07 14.09249 98.37826 26232 ft 462 kts 66°
2026-05-05 05:08 14.10506 98.40837 25812 ft 452 kts 66°
2026-05-05 05:08 14.11734 98.43783 25387 ft 443 kts 66°
2026-05-05 05:08 14.12940 98.46670 24998 ft 436 kts 66°
2026-05-05 05:08 14.14130 98.49523 24602 ft 429 kts 66°
2026-05-05 05:09 14.15300 98.52330 24205 ft 424 kts 66°
2026-05-05 05:09 14.16454 98.55102 23819 ft 419 kts 66°
2026-05-05 05:09 14.17601 98.57853 23424 ft 415 kts 66°
2026-05-05 05:09 14.18733 98.60570 22956 ft 411 kts 66°
2026-05-05 05:10 14.19855 98.63268 22494 ft 408 kts 66°
2026-05-05 05:10 14.20969 98.65947 22046 ft 405 kts 66°
2026-05-05 05:10 14.22074 98.68601 21606 ft 401 kts 66°
2026-05-05 05:10 14.23073 98.71239 21168 ft 399 kts 69°
2026-05-05 05:11 14.23952 98.73943 20820 ft 394 kts 71°
2026-05-05 05:11 14.24743 98.76587 20851 ft 379 kts 72°
2026-05-05 05:11 14.25473 98.79143 20848 ft 365 kts 73°
2026-05-05 05:11 14.26159 98.81622 20859 ft 352 kts 73°
2026-05-05 05:12 14.26807 98.84012 20781 ft 342 kts 73°
2026-05-05 05:12 14.27447 98.86409 20060 ft 353 kts 73°
2026-05-05 05:12 14.28103 98.88888 19480 ft 360 kts 74°
2026-05-05 05:12 14.28759 98.91376 19181 ft 357 kts 74°
2026-05-05 05:13 14.29404 98.93830 18857 ft 355 kts 74°
2026-05-05 05:13 14.29846 98.96327 18495 ft 353 kts 83°
2026-05-05 05:13 14.30258 98.98828 18207 ft 355 kts 76°
2026-05-05 05:13 14.30875 99.01287 18067 ft 352 kts 73°
2026-05-05 05:14 14.31534 99.03690 17994 ft 346 kts 73°
2026-05-05 05:14 14.32190 99.06064 17966 ft 343 kts 73°
2026-05-05 05:14 14.32841 99.08437 17954 ft 346 kts 73°
2026-05-05 05:14 14.33491 99.10841 17948 ft 349 kts 73°
2026-05-05 05:15 14.34132 99.13251 17947 ft 349 kts 74°
2026-05-05 05:15 14.34764 99.15670 17948 ft 349 kts 74°
2026-05-05 05:15 14.35385 99.18087 17952 ft 348 kts 74°
2026-05-05 05:15 14.35998 99.20495 17950 ft 348 kts 75°
2026-05-05 05:16 14.36606 99.22912 17945 ft 348 kts 75°
2026-05-05 05:16 14.37207 99.25306 17943 ft 349 kts 75°
2026-05-05 05:16 14.37810 99.27731 17948 ft 349 kts 75°
2026-05-05 05:16 14.38411 99.30156 17942 ft 349 kts 75°
2026-05-05 05:17 14.39010 99.32578 17933 ft 348 kts 75°
2026-05-05 05:17 14.39604 99.34994 17942 ft 348 kts 75°
2026-05-05 05:17 14.40200 99.37414 17938 ft 349 kts 75°
2026-05-05 05:17 14.40799 99.39846 17943 ft 350 kts 75°
2026-05-05 05:18 14.41396 99.42279 17939 ft 349 kts 75°
2026-05-05 05:18 14.41988 99.44704 17939 ft 349 kts 75°
2026-05-05 05:18 14.42579 99.47129 17939 ft 348 kts 75°
2026-05-05 05:18 14.43172 99.49552 17937 ft 348 kts 75°
2026-05-05 05:19 14.43583 99.52009 17934 ft 349 kts 86°
2026-05-05 05:19 14.43615 99.54514 17931 ft 350 kts 90°
2026-05-05 05:19 14.43541 99.57031 17930 ft 351 kts 92°
2026-05-05 05:19 14.43427 99.59549 17930 ft 350 kts 92°
2026-05-05 05:20 14.43287 99.62051 17930 ft 350 kts 93°
2026-05-05 05:20 14.43136 99.64527 17929 ft 349 kts 93°
2026-05-05 05:20 14.42975 99.67024 17923 ft 350 kts 93°
2026-05-05 05:20 14.42813 99.69534 17925 ft 350 kts 93°
2026-05-05 05:21 14.42650 99.72043 17923 ft 351 kts 93°
2026-05-05 05:21 14.42486 99.74552 17919 ft 350 kts 93°
2026-05-05 05:21 14.42324 99.77046 17925 ft 350 kts 93°
2026-05-05 05:21 14.42163 99.79557 17925 ft 349 kts 93°
2026-05-05 05:22 14.42001 99.82057 17920 ft 349 kts 93°
2026-05-05 05:22 14.41840 99.84563 17919 ft 350 kts 93°
2026-05-05 05:22 14.41680 99.87069 17922 ft 350 kts 93°
2026-05-05 05:22 14.41519 99.89572 17924 ft 350 kts 93°
2026-05-05 05:23 14.41357 99.92078 17921 ft 350 kts 93°
2026-05-05 05:23 14.41198 99.94581 17923 ft 349 kts 93°
2026-05-05 05:23 14.41038 99.97081 17919 ft 349 kts 93°
2026-05-05 05:23 14.40879 99.99582 17800 ft 349 kts 93°
2026-05-05 05:24 14.40712 100.02077 17529 ft 347 kts 95°
2026-05-05 05:24 14.40417 100.04539 17135 ft 346 kts 98°
2026-05-05 05:24 14.40015 100.06945 16770 ft 344 kts 100°
2026-05-05 05:24 14.39534 100.09386 16384 ft 341 kts 102°
2026-05-05 05:25 14.39019 100.11735 16029 ft 339 kts 103°
2026-05-05 05:25 14.38468 100.14089 15661 ft 337 kts 103°
2026-05-05 05:25 14.37895 100.16423 15283 ft 334 kts 104°
2026-05-05 05:25 14.37318 100.18735 14915 ft 332 kts 104°
2026-05-05 05:26 14.36739 100.21034 14546 ft 330 kts 104°
2026-05-05 05:26 14.36158 100.23322 14233 ft 331 kts 104°
2026-05-05 05:26 14.35575 100.25629 14073 ft 332 kts 104°
2026-05-05 05:26 14.35005 100.27890 13999 ft 319 kts 104°
2026-05-05 05:27 14.34458 100.30050 13967 ft 305 kts 104°
2026-05-05 05:27 14.33934 100.32115 13938 ft 290 kts 104°
2026-05-05 05:27 14.32954 100.35979 13927 ft 272 kts 104°
2026-05-05 05:28 14.32474 100.37871 13939 ft 275 kts 104°
2026-05-05 05:28 14.31988 100.39791 13928 ft 277 kts 104°
2026-05-05 05:28 14.31503 100.41703 13926 ft 270 kts 104°
2026-05-05 05:28 14.31042 100.43519 13927 ft 258 kts 104°
2026-05-05 05:29 14.30584 100.45329 13641 ft 264 kts 104°
2026-05-05 05:29 14.30124 100.47151 13277 ft 262 kts 104°
2026-05-05 05:29 14.29662 100.48959 12828 ft 259 kts 104°
2026-05-05 05:29 14.29207 100.50748 12355 ft 257 kts 104°
2026-05-05 05:30 14.28757 100.52524 11879 ft 254 kts 104°
2026-05-05 05:30 14.28312 100.54282 11429 ft 253 kts 104°
2026-05-05 05:30 14.27867 100.56035 11143 ft 250 kts 104°
2026-05-05 05:30 14.27438 100.57731 10862 ft 244 kts 104°
2026-05-05 05:31 14.27010 100.59415 10446 ft 242 kts 104°
2026-05-05 05:31 14.26585 100.61086 10052 ft 240 kts 104°
2026-05-05 05:31 14.26163 100.62749 9672 ft 239 kts 104°
2026-05-05 05:31 14.25715 100.64391 9290 ft 237 kts 112°
2026-05-05 05:32 14.24709 100.65717 9101 ft 238 kts 144°
2026-05-05 05:32 14.23159 100.66238 9023 ft 238 kts 178°
2026-05-05 05:32 14.21518 100.65996 8976 ft 239 kts 191°
2026-05-05 05:32 14.19887 100.65607 8967 ft 242 kts 192°
2026-05-05 05:33 14.18258 100.65182 8950 ft 241 kts 194°
2026-05-05 05:33 14.16644 100.64721 8946 ft 241 kts 195°
2026-05-05 05:33 14.15034 100.64237 8954 ft 241 kts 195°
2026-05-05 05:33 14.13428 100.63750 8984 ft 240 kts 195°
2026-05-05 05:34 14.11843 100.63268 9003 ft 242 kts 195°
2026-05-05 05:34 14.10222 100.62774 9020 ft 243 kts 195°
2026-05-05 05:34 14.08605 100.62283 9016 ft 241 kts 195°
2026-05-05 05:34 14.06999 100.61792 9020 ft 241 kts 195°
2026-05-05 05:35 14.05368 100.61292 9023 ft 242 kts 195°
2026-05-05 05:35 14.03754 100.60799 9027 ft 242 kts 195°
2026-05-05 05:35 14.02156 100.60343 9025 ft 241 kts 194°
2026-05-05 05:35 14.00523 100.59958 9022 ft 240 kts 183°
2026-05-05 05:36 13.98919 100.60285 9018 ft 237 kts 150°
2026-05-05 05:36 13.97816 100.61420 9021 ft 216 kts 116°
2026-05-05 05:36 13.97284 100.62848 9021 ft 215 kts 108°
2026-05-05 05:36 13.96832 100.64332 9019 ft 218 kts 104°
2026-05-05 05:37 13.96485 100.65847 9020 ft 217 kts 102°
2026-05-05 05:37 13.96165 100.67369 9021 ft 217 kts 102°
2026-05-05 05:37 13.95861 100.68895 9028 ft 218 kts 101°
2026-05-05 05:37 13.95666 100.70439 9008 ft 218 kts 86°
2026-05-05 05:38 13.96222 100.71870 8790 ft 219 kts 50°
2026-05-05 05:38 13.97482 100.72692 8545 ft 213 kts 20°
2026-05-05 05:38 13.98885 100.73113 8237 ft 209 kts 16°
2026-05-05 05:38 14.00294 100.73492 7863 ft 209 kts 15°
2026-05-05 05:39 14.01703 100.73832 7526 ft 208 kts 13°
2026-05-05 05:39 14.03123 100.74109 7203 ft 207 kts 12°
2026-05-05 05:39 14.04509 100.74405 6913 ft 206 kts 13°
2026-05-05 05:39 14.05904 100.74727 6598 ft 205 kts 14°
2026-05-05 05:40 14.07297 100.75048 6322 ft 207 kts 14°
2026-05-05 05:40 14.08719 100.75374 6133 ft 208 kts 14°
2026-05-05 05:40 14.10120 100.75692 6087 ft 203 kts 14°
2026-05-05 05:40 14.11493 100.76008 6055 ft 203 kts 14°
2026-05-05 05:41 14.12873 100.76324 6046 ft 204 kts 14°
2026-05-05 05:41 14.14261 100.76639 6030 ft 203 kts 14°
2026-05-05 05:41 14.15640 100.76952 6028 ft 203 kts 14°
2026-05-05 05:41 14.17018 100.77269 6031 ft 204 kts 14°
2026-05-05 05:42 14.18404 100.77588 6038 ft 204 kts 14°
2026-05-05 05:42 14.19793 100.77900 6035 ft 204 kts 14°
2026-05-05 05:42 14.21174 100.78220 6026 ft 203 kts 14°
2026-05-05 05:42 14.22562 100.78539 6020 ft 204 kts 14°
2026-05-05 05:43 14.23484 100.78751 6022 ft 205 kts 14°
2026-05-05 05:43 14.25183 100.79445 6019 ft 189 kts 46°
2026-05-05 05:43 14.25644 100.80181 6004 ft 185 kts 75°
2026-05-05 05:43 14.25343 100.81838 6023 ft 186 kts 130°
2026-05-05 05:44 14.24238 100.82488 6031 ft 188 kts 171°
2026-05-05 05:44 14.23362 100.82420 6040 ft 190 kts 195°
2026-05-05 05:44 14.22134 100.81941 6037 ft 190 kts 201°
2026-05-05 05:44 14.20865 100.81667 6032 ft 186 kts 174°
2026-05-05 05:45 14.19603 100.81933 6042 ft 187 kts 165°
2026-05-05 05:45 14.18335 100.82250 6057 ft 187 kts 166°
2026-05-05 05:45 14.17064 100.82553 6101 ft 187 kts 166°
2026-05-05 05:45 14.15788 100.82816 6131 ft 187 kts 169°
2026-05-05 05:46 14.14505 100.83003 6134 ft 186 kts 172°
2026-05-05 05:46 14.13214 100.83172 6148 ft 188 kts 172°
2026-05-05 05:46 14.11917 100.83338 6170 ft 188 kts 172°
2026-05-05 05:46 14.10623 100.83493 6168 ft 187 kts 173°
2026-05-05 05:47 14.09316 100.83541 6181 ft 189 kts 179°
2026-05-05 05:47 14.08001 100.83490 6193 ft 189 kts 182°
2026-05-05 05:47 14.06686 100.83405 6196 ft 189 kts 182°
2026-05-05 05:47 14.05375 100.83321 6182 ft 189 kts 182°
2026-05-05 05:48 14.04057 100.83217 6216 ft 191 kts 184°
2026-05-05 05:48 14.02707 100.83092 5918 ft 196 kts 184°
2026-05-05 05:48 14.01352 100.82950 5647 ft 193 kts 185°
2026-05-05 05:48 14.00077 100.82802 5622 ft 180 kts 185°
2026-05-05 05:49 13.98820 100.82646 5619 ft 184 kts 185°
2026-05-05 05:49 13.97520 100.82523 5460 ft 191 kts 181°
2026-05-05 05:49 13.96204 100.82469 5226 ft 190 kts 181°
2026-05-05 05:49 13.94887 100.82375 5023 ft 189 kts 184°
2026-05-05 05:50 13.93583 100.82230 4759 ft 188 kts 185°
2026-05-05 05:50 13.92285 100.82050 4474 ft 186 kts 187°
2026-05-05 05:50 13.91052 100.81850 4209 ft 176 kts 189°
2026-05-05 05:50 13.89847 100.81569 4008 ft 180 kts 193°
2026-05-05 05:51 13.88617 100.81255 3812 ft 183 kts 193°
2026-05-05 05:51 13.87377 100.80931 3577 ft 184 kts 194°
2026-05-05 05:51 13.86141 100.80592 3366 ft 183 kts 194°
2026-05-05 05:51 13.84909 100.80263 3102 ft 183 kts 194°
2026-05-05 05:52 13.83676 100.79935 2842 ft 182 kts 194°
2026-05-05 05:52 13.82473 100.79612 2551 ft 180 kts 194°
2026-05-05 05:52 13.81244 100.79286 2297 ft 180 kts 193°
2026-05-05 05:52 13.80047 100.78975 2142 ft 180 kts 194°
2026-05-05 05:53 13.78837 100.78649 1912 ft 181 kts 194°
2026-05-05 05:53 13.77620 100.78336 1681 ft 177 kts 193°
2026-05-05 05:53 13.76466 100.78033 1476 ft 165 kts 194°
2026-05-05 05:53 13.75386 100.77744 1279 ft 156 kts 194°
2026-05-05 05:54 13.74346 100.77469 1016 ft 154 kts 194°
2026-05-05 05:54 13.73321 100.77196 735 ft 151 kts 194°
2026-05-05 05:54 13.72320 100.76914 491 ft 147 kts 195°
2026-05-05 05:54 13.71342 100.76657 306 ft 143 kts 192°
2026-05-05 05:55 13.70374 100.76427 164 ft 144 kts 192°
2026-05-05 05:55 13.69406 100.76174 60 ft 142 kts 193°
2026-05-05 05:55 13.68500 100.75928 23 ft 127 kts 193°
2026-05-05 05:55 13.67874 100.75763 14 ft 55 kts 194°
2026-05-05 05:56 13.67576 100.75652 14 ft 28 kts 211°
2026-05-05 05:56 13.67455 100.75520 16 ft 20 kts 262°
2026-05-05 05:56 13.67488 100.75481 16 ft 7 kts 340°
2026-05-05 05:56 13.67537 100.75486 16 ft 8 kts 12°
2026-05-05 05:57 13.67598 100.75500 16 ft 10 kts 14°
2026-05-05 05:57 13.67675 100.75519 16 ft 13 kts 14°
2026-05-05 05:57 13.67768 100.75544 16 ft 15 kts 15°
2026-05-05 05:57 13.67874 100.75573 16 ft 17 kts 14°
2026-05-05 05:58 13.67991 100.75602 16 ft 18 kts 14°
2026-05-05 05:58 13.68119 100.75636 16 ft 20 kts 14°
2026-05-05 05:58 13.68258 100.75672 17 ft 21 kts 14°
2026-05-05 05:58 13.68406 100.75711 16 ft 23 kts 14°
2026-05-05 05:59 13.68562 100.75752 16 ft 24 kts 15°
2026-05-05 05:59 13.68728 100.75795 16 ft 25 kts 14°
2026-05-05 05:59 13.68902 100.75842 16 ft 26 kts 15°
2026-05-05 05:59 13.69005 100.75868 16 ft 1 kts 14°
2026-05-05 06:00 13.69010 100.75870 16 ft 2 kts 14°
2026-05-05 06:00 13.69037 100.75876 16 ft 5 kts 14°
2026-05-05 06:00 13.69080 100.75878 16 ft 7 kts 345°
2026-05-05 06:00 13.69110 100.75837 16 ft 8 kts 294°
2026-05-05 06:01 13.69127 100.75775 16 ft 10 kts 283°
2026-05-05 06:01 13.69146 100.75698 16 ft 12 kts 284°
2026-05-05 06:01 13.69198 100.75635 16 ft 11 kts 349°
2026-05-05 06:01 13.69250 100.75627 16 ft 3 kts 315°
2026-05-05 06:02 13.69259 100.75607 16 ft 4 kts 294°
2026-05-05 06:02 13.69269 100.75570 16 ft 6 kts 283°
2026-05-05 06:02 13.69275 100.75550 16 ft 1 kts 286°
2026-05-05 06:02 13.69276 100.75547 16 ft 0 kts 286°